Date,TemperatureHighF,TemperatureAvgF,TemperatureLowF,DewpointHighF,DewpointAvgF,DewpointLowF,HumidityHigh,HumidityAvg,HumidityLow,PressureMaxIn,PressureMinIn,WindSpeedMaxMPH,WindSpeedAvgMPH,GustSpeedMaxMPH,PrecipitationSumIn
2013-1-1,36.0,31.7,24.0,30.0,25.4,13.0,88,78,62,0.00,40.00,5,4,13,0.02
2013-1-2,27.0,22.7,18.0,16.0,13.6,12.0,85,69,57,0.00,40.00,6,3,15,0.01
2013-1-3,31.0,22.0,11.0,20.0,14.2,10.0,97,73,48,0.00,40.00,5,2,16,0.00
2013-1-4,35.0,30.1,28.0,22.0,20.2,18.0,76,66,56,0.00,40.00,7,5,21,0.00
2013-1-5,37.0,29.0,23.0,24.0,21.0,18.0,95,72,55,0.00,40.00,7,4,17,0.05
2013-1-6,42.0,34.4,28.0,30.0,26.1,22.0,89,72,54,0.00,40.00,6,2,15,0.01
2013-1-7,38.0,33.8,25.0,31.0,28.1,24.0,97,80,61,0.00,40.00,5,3,14,0.00
2013-1-8,46.0,32.1,24.0,28.0,25.7,22.0,100,80,46,0.00,40.00,5,2,11,0.00
2013-1-9,44.0,35.6,24.0,37.0,30.2,24.0,100,82,61,0.00,40.00,7,4,18,0.00
2013-1-10,44.0,36.8,30.0,30.0,27.3,25.0,95,70,53,0.00,40.00,6,3,19,0.00
2013-1-11,40.0,36.8,30.0,39.0,31.7,25.0,100,83,64,0.00,40.00,7,5,20,0.29
2013-1-12,52.0,39.2,35.0,51.0,39.1,35.0,100,100,93,0.00,40.00,3,1,7,0.10
2013-1-13,49.0,46.2,38.0,49.0,46.2,38.0,100,100,100,0.00,40.00,8,5,21,0.00
2013-1-14,51.0,45.5,38.0,51.0,39.6,28.0,100,81,60,0.00,40.00,8,3,18,0.12
2013-1-15,36.0,32.3,30.0,31.0,25.2,23.0,90,75,68,0.00,40.00,6,4,15,0.02
2013-1-16,33.0,30.8,29.0,33.0,30.8,29.0,100,100,100,0.00,40.00,5,2,10,0.00
2013-1-17,37.0,32.0,30.0,32.0,29.6,28.0,100,91,73,0.00,40.00,4,2,13,0.23
2013-1-18,32.0,24.9,20.0,29.0,13.8,7.0,98,64,41,0.00,40.00,7,4,15,0.03
2013-1-19,49.0,37.8,25.0,28.0,21.0,10.0,67,51,36,0.00,40.00,7,5,19,0.13
2013-1-20,47.0,37.2,23.0,28.0,20.1,8.0,67,51,32,0.00,40.00,9,6,28,0.03
2013-1-21,26.0,21.7,17.0,23.0,13.9,5.0,100,73,55,0.00,40.00,5,2,14,0.00
2013-1-22,17.0,11.1,5.0,5.0,-2.2,-7.0,66,54,43,0.00,40.00,9,5,24,0.00
2013-1-23,14.0,7.2,2.0,3.0,-1.9,-6.0,86,66,52,0.00,40.00,6,2,16,0.00
2013-1-24,22.0,12.9,6.0,7.0,2.4,-3.0,88,65,37,0.00,40.00,7,4,20,0.00
2013-1-25,17.0,11.0,7.0,10.0,3.6,-1.0,92,72,54,0.00,40.00,5,3,13,0.00
2013-1-26,25.0,14.8,6.0,11.0,8.5,2.0,93,78,47,0.00,40.00,5,2,12,0.05
2013-1-27,32.0,14.2,-1.0,15.0,7.2,-5.0,90,75,48,0.00,40.00,5,2,11,0.02
2013-1-28,33.0,28.8,18.0,33.0,27.1,15.0,100,93,66,0.00,40.00,6,3,17,0.11
2013-1-29,49.0,40.4,33.0,49.0,40.4,33.0,100,100,100,0.00,40.00,8,3,18,0.21
2013-1-30,60.0,52.5,48.0,60.0,52.5,48.0,100,100,100,0.00,40.00,10,5,19,0.61
2013-1-31,51.0,30.1,23.0,51.0,19.5,11.0,100,65,48,0.00,40.00,11,8,30,1.16
2013-2-1,24.0,21.0,15.0,15.0,8.3,2.0,72,58,44,0.00,40.00,9,6,27,0.01
2013-2-2,20.0,15.8,8.0,18.0,8.0,2.0,93,72,56,0.00,40.00,6,3,17,0.00
2013-2-3,28.0,22.2,16.0,23.0,17.9,9.0,99,84,63,0.00,40.00,8,2,21,0.02
2013-2-4,25.0,21.2,17.0,22.0,11.7,8.0,96,67,47,0.00,40.00,7,4,21,0.02
2013-2-5,32.0,27.5,24.0,29.0,25.4,22.0,100,92,82,0.00,40.00,5,2,10,0.02
2013-2-6,36.0,27.9,20.0,28.0,21.7,16.0,100,79,47,0.00,40.00,6,3,15,0.01
2013-2-7,31.0,24.0,16.0,20.0,14.8,12.0,92,69,53,0.00,40.00,9,5,19,0.01
2013-2-8,35.0,31.7,28.0,33.0,30.5,20.0,100,95,73,0.00,40.00,13,6,23,0.01
2013-2-9,29.0,22.5,18.0,26.0,15.0,11.0,100,73,59,0.00,40.00,9,6,26,0.23
2013-2-10,41.0,25.3,7.0,16.0,10.1,2.0,94,58,20,0.00,40.00,8,3,19,0.02
2013-2-11,42.0,36.7,32.0,42.0,33.5,15.0,100,90,46,0.00,40.00,9,5,23,0.11
2013-2-12,38.0,34.5,26.0,27.0,23.9,22.0,93,66,55,0.00,40.00,8,5,23,0.03
2013-2-13,39.0,29.9,21.0,32.0,26.3,21.0,100,88,61,0.00,40.00,6,2,13,0.00
2013-2-14,42.0,34.0,27.0,32.0,29.5,27.0,100,85,61,0.00,40.00,6,2,13,0.11
2013-2-15,45.0,38.9,32.0,34.0,29.4,26.0,100,70,50,0.00,40.00,6,3,16,0.02
2013-2-16,33.0,29.2,25.0,32.0,22.5,11.0,100,78,54,0.00,40.00,6,2,17,0.15
2013-2-17,25.0,20.8,16.0,14.0,7.9,1.0,78,57,42,0.00,40.00,10,6,25,0.03
2013-2-18,35.0,23.3,13.0,15.0,7.5,3.0,66,51,35,0.00,40.00,8,5,20,0.00
2013-2-19,36.0,33.0,30.0,36.0,25.7,11.0,100,77,41,0.00,40.00,8,6,20,0.29
2013-2-20,28.0,23.1,19.0,20.0,11.5,8.0,73,61,54,0.00,40.00,8,6,26,0.01
2013-2-21,33.0,24.3,19.0,16.0,13.3,9.0,73,63,48,0.00,40.00,8,6,20,0.00
2013-2-22,31.0,25.7,19.0,26.0,19.9,15.0,92,79,66,0.00,40.00,10,5,18,0.00
2013-2-23,41.0,34.7,30.0,41.0,34.4,27.0,100,99,87,0.00,40.00,7,3,14,0.00
2013-2-24,35.0,32.5,29.0,35.0,27.3,18.0,100,82,59,0.00,40.00,7,4,19,0.01
2013-2-25,41.0,31.9,26.0,30.0,23.9,19.0,95,74,51,0.00,40.00,6,3,12,0.01
2013-2-26,38.0,31.9,25.0,35.0,29.1,25.0,100,89,67,0.00,40.00,20,9,38,0.25
2013-2-27,39.0,36.8,34.0,39.0,36.8,34.0,100,100,100,0.00,40.00,20,8,38,0.48
2013-2-28,39.0,34.4,32.0,35.0,32.5,29.0,100,94,71,0.00,40.00,5,2,16,0.06
2013-3-1,37.0,34.3,31.0,33.0,28.6,22.0,100,80,64,0.00,40.00,5,4,14,0.02
2013-3-2,31.0,28.8,26.0,25.0,21.9,20.0,95,76,65,0.00,40.00,6,4,16,0.01
2013-3-3,32.0,27.1,24.0,22.0,18.5,17.0,81,70,55,0.00,40.00,7,5,22,0.00
2013-3-4,34.0,27.5,23.0,23.0,18.3,14.0,94,68,57,0.00,40.00,9,6,21,0.00
2013-3-5,40.0,31.0,27.0,28.0,23.8,21.0,94,76,56,0.00,40.00,7,4,17,0.00
2013-3-6,40.0,36.6,33.0,30.0,28.7,27.0,84,73,63,0.00,40.00,18,11,30,0.00
2013-3-7,40.0,35.6,32.0,27.0,23.7,21.0,71,62,49,0.00,40.00,7,6,24,0.00
2013-3-8,40.0,33.1,27.0,27.0,23.3,20.0,98,68,54,0.00,40.00,8,6,23,0.00
2013-3-9,54.0,37.3,25.0,28.0,23.8,21.0,90,62,27,0.00,40.00,5,2,14,0.00
2013-3-10,56.0,43.7,28.0,29.0,24.4,19.0,94,53,27,0.00,40.00,9,5,20,0.00
2013-3-11,54.0,46.4,38.0,49.0,37.7,29.0,94,73,45,0.00,40.00,12,7,34,0.00
2013-3-12,52.0,47.0,38.0,52.0,45.0,30.0,100,93,73,0.00,40.00,9,6,28,0.92
2013-3-13,41.0,35.8,29.0,33.0,26.9,16.0,92,71,42,0.00,40.00,7,4,22,0.02
2013-3-14,36.0,29.9,25.0,21.0,13.7,9.0,81,52,33,0.00,40.00,9,7,26,0.00
2013-3-15,44.0,33.9,19.0,31.0,21.7,11.0,88,61,49,0.00,40.00,8,4,19,0.00
2013-3-16,40.0,31.9,29.0,32.0,27.7,20.0,100,86,60,0.00,40.00,8,4,19,0.09
2013-3-17,35.0,30.2,27.0,29.0,22.4,18.0,100,74,52,0.00,40.00,5,3,12,0.06
2013-3-18,32.0,27.3,21.0,31.0,21.0,13.0,100,79,52,0.00,40.00,15,7,30,0.02
2013-3-19,46.0,36.8,30.0,36.0,28.8,18.0,100,77,36,0.00,40.00,9,5,25,0.26
2013-3-20,39.0,32.3,27.0,23.0,18.4,16.0,71,57,40,0.00,40.00,8,4,19,0.11
2013-3-21,31.0,27.1,22.0,19.0,14.2,8.0,79,59,44,0.00,40.00,7,4,19,0.00
2013-3-22,36.0,28.9,24.0,23.0,19.4,15.0,96,68,53,0.00,40.00,7,5,20,0.00
2013-3-23,42.0,33.7,28.0,22.0,19.5,18.0,72,57,40,0.00,40.00,7,5,24,0.00
2013-3-24,43.0,35.2,26.0,25.0,21.0,18.0,79,57,40,0.00,40.00,7,4,13,0.00
2013-3-25,36.0,33.7,31.0,35.0,30.8,24.0,100,90,61,0.00,40.00,12,5,19,0.16
2013-3-26,47.0,37.1,30.0,36.0,31.1,28.0,100,82,48,0.00,40.00,7,3,20,0.05
2013-3-27,44.0,37.9,31.0,35.0,28.6,24.0,100,71,45,0.00,40.00,6,4,16,0.01
2013-3-28,43.0,41.0,38.0,34.0,27.0,26.0,84,57,50,0.00,40.00,6,4,14,0.01
2013-3-29,48.0,41.2,34.0,33.0,28.7,25.0,86,62,42,0.00,40.00,6,4,17,0.00
2013-3-30,54.0,39.6,25.0,33.0,26.0,17.0,100,66,23,0.00,40.00,6,2,16,0.00
2013-3-31,49.0,41.9,32.0,46.0,35.7,25.0,100,81,49,0.00,40.00,8,4,22,0.15
2013-4-1,51.0,42.7,32.0,44.0,32.1,11.0,100,71,28,0.00,40.00,9,5,22,0.09
2013-4-2,39.0,31.6,25.0,17.0,13.2,10.0,67,47,31,0.00,40.00,10,5,24,0.01
2013-4-3,39.0,31.9,24.0,17.0,12.8,9.0,74,46,29,0.00,40.00,8,4,23,0.00
2013-4-4,52.0,36.8,22.0,19.0,16.0,12.0,76,45,25,0.00,40.00,6,3,16,0.00
2013-4-5,57.0,43.9,30.0,26.0,19.8,14.0,77,41,20,0.00,40.00,8,4,24,0.00
2013-4-6,53.0,39.4,28.0,22.0,16.5,12.0,63,41,19,0.00,40.00,7,4,14,0.00
2013-4-7,61.0,49.8,39.0,41.0,31.7,17.0,68,50,35,0.00,40.00,12,8,27,0.00
2013-4-8,73.0,59.6,39.0,48.0,43.0,39.0,100,59,30,0.00,40.00,5,3,14,0.00
2013-4-9,79.0,66.4,53.0,54.0,47.8,42.0,88,55,28,0.00,40.00,8,4,22,0.00
2013-4-10,82.0,68.8,57.0,63.0,56.5,52.0,100,68,43,0.00,40.00,7,4,27,0.50
2013-4-11,59.0,54.3,48.0,59.0,54.1,47.0,100,99,95,0.00,40.00,13,6,25,0.47
2013-4-12,47.0,44.7,43.0,47.0,44.7,43.0,100,100,100,0.00,40.00,22,11,33,0.35
2013-4-13,54.0,45.2,38.0,45.0,36.7,33.0,100,75,50,0.00,40.00,7,3,18,0.02
2013-4-14,57.0,46.1,36.0,43.0,33.0,27.0,100,64,36,0.00,40.00,7,3,19,0.00
2013-4-15,63.0,51.5,45.0,47.0,39.6,31.0,86,64,53,0.00,40.00,12,6,21,0.00
2013-4-16,66.0,56.9,50.0,60.0,53.0,45.0,99,87,75,0.00,40.00,9,6,21,0.00
2013-4-17,66.0,56.3,48.0,60.0,44.2,34.0,100,69,30,0.00,40.00,7,4,20,0.20
2013-4-18,59.0,55.0,47.0,59.0,47.8,36.0,100,79,47,0.00,40.00,12,8,30,0.01
2013-4-19,69.0,61.5,47.0,66.0,60.2,45.0,100,96,84,0.00,40.00,11,6,37,0.76
2013-4-20,50.0,44.9,39.0,45.0,30.1,20.0,95,58,38,0.00,40.00,9,6,25,0.78
2013-4-21,50.0,39.5,29.0,30.0,23.1,20.0,73,53,33,0.00,40.00,9,4,21,0.00
2013-4-22,53.0,43.7,34.0,35.0,30.7,26.0,100,64,40,0.00,40.00,17,7,28,0.00
2013-4-23,61.0,47.4,39.0,46.0,38.3,32.0,97,73,43,0.00,40.00,11,6,19,0.00
2013-4-24,68.0,54.2,43.0,60.0,49.9,40.0,100,87,59,0.00,40.00,8,5,25,0.23
2013-4-25,59.0,47.2,39.0,40.0,31.5,26.0,81,58,29,0.00,40.00,7,4,24,0.23
2013-4-26,59.0,47.1,35.0,38.0,30.5,21.0,100,59,23,0.00,40.00,6,3,16,0.00
2013-4-27,69.0,52.9,37.0,41.0,33.2,28.0,90,53,26,0.00,40.00,7,3,14,0.00
2013-4-28,66.0,57.5,46.0,45.0,37.8,33.0,77,50,32,0.00,40.00,8,5,22,0.00
2013-4-29,56.0,53.0,50.0,56.0,48.9,33.0,100,88,49,0.00,40.00,9,6,20,0.14
2013-4-30,65.0,57.9,52.0,53.0,49.9,35.0,100,77,50,0.00,40.00,8,6,20,0.03
2013-5-1,70.0,57.3,42.0,40.0,32.2,25.0,83,43,21,0.00,40.00,7,5,20,0.01
2013-5-2,72.0,58.0,41.0,47.0,42.1,38.0,100,61,29,0.00,40.00,12,4,19,0.00
2013-5-3,68.0,56.8,45.0,48.0,40.1,34.0,100,58,31,0.00,40.00,11,6,24,0.00
2013-5-4,69.0,55.9,40.0,47.0,41.3,36.0,100,63,35,0.00,40.00,10,5,22,0.00
2013-5-5,69.0,56.4,41.0,45.0,38.8,28.0,100,58,22,0.00,40.00,11,6,19,0.00
2013-5-6,69.0,55.6,38.0,55.0,47.3,38.0,100,76,52,0.00,40.00,11,4,20,0.00
2013-5-7,71.0,60.9,50.0,61.0,55.0,50.0,100,83,51,0.00,40.00,15,7,24,0.00
2013-5-8,64.0,58.9,51.0,64.0,58.8,51.0,100,100,95,0.00,40.00,13,6,21,1.30
2013-5-9,67.0,57.4,50.0,62.0,54.8,50.0,100,92,69,0.00,40.00,5,2,11,0.25
2013-5-10,76.0,63.0,50.0,66.0,56.7,50.0,100,83,46,0.00,40.00,6,2,14,0.10
2013-5-11,67.0,61.8,54.0,65.0,61.0,54.0,100,97,78,0.00,40.00,6,3,13,0.36
2013-5-12,56.0,51.0,40.0,56.0,39.6,26.0,100,69,32,0.00,40.00,9,4,28,0.15
2013-5-13,52.0,42.4,34.0,35.0,28.8,22.0,100,63,34,0.00,40.00,7,4,19,0.01
2013-5-14,59.0,45.0,29.0,38.0,29.5,23.0,100,61,25,0.00,40.00,5,3,14,0.00
2013-5-15,73.0,59.0,49.0,60.0,48.8,40.0,100,69,58,0.00,40.00,7,5,21,0.00
2013-5-16,81.0,59.0,53.0,60.0,27.9,-99.9,100,70,25,0.00,40.00,7,3,16,0.00
2013-5-17,71.0,59.4,48.0,48.0,35.6,-99.9,91,57,32,0.00,40.00,6,4,16,0.00
2013-5-18,66.0,59.9,54.0,57.0,49.1,44.0,95,68,54,0.00,40.00,9,5,18,0.00
2013-5-19,61.0,58.7,57.0,61.0,58.7,57.0,100,100,100,0.00,40.00,9,6,18,0.00
2013-5-20,78.0,67.5,59.0,69.0,64.2,59.0,100,90,66,0.00,40.00,5,3,12,0.00
2013-5-21,87.0,74.1,61.0,73.0,67.1,61.0,100,82,49,0.00,40.00,5,3,13,0.00
2013-5-22,88.0,75.8,65.0,74.0,66.6,60.0,100,78,40,0.00,40.00,7,3,20,0.02
2013-5-23,76.0,68.0,61.0,70.0,65.9,60.0,100,94,75,0.00,40.00,6,3,15,0.49
2013-5-24,60.0,49.5,41.0,60.0,47.9,39.0,100,95,74,0.00,40.00,9,5,24,0.36
2013-5-25,58.0,48.6,41.0,42.0,35.9,32.0,99,64,39,0.00,40.00,10,6,27,0.20
2013-5-26,66.0,53.6,41.0,41.0,35.7,31.0,87,54,29,0.00,40.00,7,4,22,0.06
2013-5-27,69.0,54.6,36.0,50.0,40.3,35.0,100,66,29,0.00,40.00,5,2,11,0.01
2013-5-28,61.0,56.4,51.0,61.0,55.4,47.0,100,97,66,0.00,40.00,7,4,16,0.02
2013-5-29,84.0,71.3,61.0,71.0,65.2,61.0,100,83,54,0.00,40.00,6,4,18,0.21
2013-5-30,86.0,73.5,59.0,70.0,65.3,59.0,100,80,48,0.00,40.00,5,2,12,0.01
2013-5-31,89.0,76.1,64.0,72.0,65.5,61.0,100,74,41,0.00,40.00,9,3,18,0.00
2013-6-1,89.0,77.2,65.0,71.0,66.9,64.0,100,73,49,0.00,40.00,5,3,13,0.00
2013-6-2,83.0,76.3,71.0,71.0,67.8,63.0,92,76,55,0.00,40.00,6,4,17,0.00
2013-6-3,74.0,70.1,63.0,71.0,62.6,49.0,100,79,60,0.00,40.00,6,3,16,0.00
2013-6-4,73.0,59.5,44.0,51.0,45.2,42.0,100,63,34,0.00,40.00,5,3,16,0.00
2013-6-5,76.0,61.6,45.0,51.0,46.2,41.0,96,62,34,0.00,40.00,6,3,14,0.00
2013-6-6,64.0,61.4,57.0,62.0,56.0,50.0,100,84,60,0.00,40.00,9,6,21,0.01
2013-6-7,64.0,62.4,60.0,64.0,62.4,60.0,100,100,99,0.00,40.00,10,6,20,0.17
2013-6-8,71.0,63.0,56.0,65.0,61.3,54.0,100,95,72,0.00,40.00,5,2,12,0.17
2013-6-9,80.0,64.3,51.0,65.0,56.8,51.0,100,81,44,0.00,40.00,4,2,11,0.02
2013-6-10,68.0,66.1,63.0,68.0,66.0,63.0,100,99,87,0.00,40.00,10,6,18,0.05
2013-6-11,73.0,67.8,62.0,69.0,65.5,61.0,100,93,80,0.00,40.00,7,3,17,1.42
2013-6-12,76.0,67.2,60.0,64.0,60.1,55.0,100,81,50,0.00,40.00,5,3,17,0.39
2013-6-13,74.0,65.5,58.0,70.0,63.7,57.0,100,95,78,0.00,40.00,9,5,22,0.77
2013-6-14,72.0,62.0,55.0,60.0,56.2,54.0,100,84,57,0.00,40.00,6,4,20,0.26
2013-6-15,77.0,63.8,51.0,62.0,55.9,51.0,100,79,42,0.00,40.00,5,2,15,0.01
2013-6-16,76.0,66.1,55.0,68.0,60.2,53.0,100,83,52,0.00,40.00,7,3,18,0.00
2013-6-17,83.0,69.8,59.0,69.0,62.7,58.0,100,82,42,0.00,40.00,5,2,13,0.00
2013-6-18,80.0,68.3,57.0,67.0,62.5,57.0,100,83,58,0.00,40.00,8,3,13,0.00
2013-6-19,75.0,64.8,56.0,61.0,52.7,47.0,95,68,37,0.00,40.00,8,4,16,0.00
2013-6-20,78.0,63.1,50.0,62.0,55.1,50.0,100,79,49,0.00,40.00,6,3,12,0.00
2013-6-22,84.0,78.9,72.0,69.0,65.3,61.0,86,64,50,0.00,40.00,5,3,13,0.00
2013-6-23,87.0,77.5,66.0,72.0,68.0,63.0,100,75,47,0.00,40.00,4,3,13,0.00
2013-6-24,88.0,73.9,64.0,76.0,69.2,64.0,100,87,54,0.00,40.00,6,2,15,0.14
2013-6-25,85.0,73.4,64.0,75.0,70.0,64.0,100,90,65,0.00,40.00,7,2,19,0.15
2013-6-26,80.0,70.1,62.0,72.0,67.2,62.0,100,91,70,0.00,40.00,3,1,11,0.09
2013-6-27,82.0,70.8,63.0,75.0,68.3,63.0,100,93,62,0.00,40.00,7,3,13,0.71
2013-6-28,80.0,69.9,64.0,74.0,68.0,63.0,100,95,64,0.00,40.00,5,2,14,1.21
2013-6-29,80.0,69.4,61.0,69.0,64.3,61.0,100,86,52,0.00,40.00,5,2,14,0.07
2013-6-30,81.0,70.6,61.0,75.0,69.0,61.0,100,95,74,0.00,40.00,6,2,13,0.89
2013-7-1,77.0,71.8,68.0,77.0,71.8,68.0,100,100,96,0.00,40.00,7,3,14,0.99
2013-7-2,81.0,74.5,70.0,77.0,73.1,70.0,100,96,77,0.00,40.00,5,3,16,0.27
2013-7-3,81.0,74.5,71.0,75.0,72.8,71.0,100,95,74,0.00,40.00,5,2,12,0.06
2013-7-4,86.0,77.7,71.0,77.0,73.9,71.0,100,89,64,0.00,40.00,5,2,14,0.01
2013-7-5,89.0,78.9,70.0,78.0,73.5,70.0,100,85,59,0.00,40.00,5,3,14,0.00
2013-7-6,89.0,77.3,69.0,77.0,72.9,69.0,100,88,57,0.00,40.00,5,2,10,0.00
2013-7-7,89.0,76.8,66.0,76.0,71.1,66.0,100,85,54,0.00,40.00,5,2,22,0.03
2013-7-8,82.0,70.1,63.0,73.0,67.3,63.0,100,92,62,0.00,40.00,5,1,16,0.22
2013-7-9,83.0,72.1,64.0,75.0,69.7,64.0,100,93,63,0.00,40.00,6,2,12,0.01
2013-7-10,83.0,73.6,69.0,76.0,67.7,-99.9,100,88,71,0.00,40.00,5,3,14,0.01
2013-7-11,82.0,71.7,64.0,69.0,66.5,61.0,100,86,49,0.00,40.00,5,2,13,0.01
2013-7-12,77.0,69.0,62.0,73.0,66.3,62.0,100,92,77,0.00,40.00,7,3,13,0.07
2013-7-13,81.0,71.9,67.0,75.0,70.3,67.0,100,95,76,0.00,40.00,10,5,16,0.15
2013-7-14,87.0,78.0,70.0,78.0,72.6,70.0,100,86,58,0.00,40.00,5,2,14,0.01
2013-7-15,91.0,76.9,66.0,79.0,72.1,66.0,100,87,56,0.00,40.00,5,2,12,0.01
2013-7-16,90.0,82.8,70.0,72.0,69.1,66.0,100,67,49,0.00,40.00,5,3,15,0.00
2013-7-17,92.0,78.5,66.0,78.0,70.0,66.0,100,79,44,0.00,40.00,3,2,12,0.00
2013-7-18,93.0,82.1,71.0,81.0,73.1,68.0,100,77,50,0.00,40.00,4,2,10,0.00
2013-7-19,91.0,79.4,68.0,78.0,73.5,68.0,100,84,59,0.00,40.00,6,2,14,0.00
2013-7-20,88.0,76.1,71.0,76.0,70.3,-99.9,100,87,56,0.00,40.00,7,3,16,0.07
2013-7-21,87.0,74.5,66.0,74.0,66.3,54.0,100,81,33,0.00,40.00,6,2,11,0.13
2013-7-22,83.0,75.2,69.0,74.0,71.8,69.0,100,90,66,0.00,40.00,8,4,16,0.01
2013-7-23,82.0,74.1,67.0,75.0,71.9,67.0,100,93,73,0.00,40.00,6,3,13,0.00
2013-7-24,75.0,67.1,60.0,67.0,61.2,53.0,100,83,56,0.00,40.00,6,3,18,0.00
2013-7-25,74.0,61.1,49.0,64.0,56.4,49.0,100,86,64,0.00,40.00,6,2,10,0.00
2013-7-26,80.0,65.6,54.0,63.0,56.5,53.0,100,78,39,0.00,40.00,4,2,13,0.00
2013-7-27,79.0,68.0,58.0,74.0,65.5,58.0,100,93,71,0.00,40.00,7,3,18,0.00
2013-7-28,78.0,70.4,66.0,73.0,68.9,65.0,100,95,71,0.00,40.00,6,2,13,0.00
2013-7-29,76.0,65.4,55.0,65.0,58.6,55.0,100,82,49,0.00,40.00,5,2,12,0.00
2013-7-30,76.0,63.2,52.0,62.0,57.5,52.0,100,84,54,0.00,40.00,5,2,13,0.00
2013-7-31,80.0,68.4,56.0,69.0,61.8,56.0,100,82,51,0.00,40.00,6,3,10,0.00
2013-8-1,76.0,70.1,66.0,73.0,69.1,66.0,100,97,87,0.00,40.00,5,2,12,0.00
2013-8-2,78.0,68.6,60.0,68.0,62.9,59.0,100,84,52,0.00,40.00,5,2,13,0.00
2013-8-3,75.0,66.3,61.0,70.0,65.2,61.0,100,97,75,0.00,40.00,7,2,14,0.00
2013-8-4,74.0,63.4,54.0,62.0,57.3,54.0,100,83,52,0.00,40.00,6,2,19,0.00
2013-8-5,73.0,61.0,51.0,60.0,54.6,50.0,100,83,47,0.00,40.00,4,2,10,0.00
2013-8-6,74.0,65.0,54.0,64.0,59.1,54.0,100,83,61,0.00,40.00,7,4,18,0.00
2013-8-7,71.0,67.2,64.0,71.0,67.2,64.0,100,100,100,0.00,40.00,6,4,15,0.00
2013-8-8,82.0,72.7,65.0,76.0,70.8,65.0,100,94,75,0.00,40.00,5,3,13,0.00
2013-8-9,81.0,74.7,71.0,78.0,73.8,70.0,100,97,85,0.00,40.00,5,2,12,0.00
2013-8-10,81.0,71.2,62.0,70.0,65.1,60.0,100,83,55,0.00,40.00,5,3,14,0.00
2013-8-11,80.0,67.0,56.0,71.0,62.2,56.0,100,87,58,0.00,40.00,4,2,8,0.00
2013-8-12,81.0,71.1,64.0,70.0,64.7,59.0,100,83,48,0.00,40.00,4,2,12,0.00
2013-8-13,80.0,70.1,65.0,72.0,65.1,-99.9,100,87,69,0.00,40.00,6,3,17,0.00
2013-8-14,68.0,58.9,52.0,54.0,49.0,-99.9,100,73,55,0.00,40.00,6,4,18,0.00
2013-8-15,73.0,53.1,46.0,58.0,37.8,-99.9,100,78,43,0.00,40.00,5,2,20,0.00
2013-8-16,77.0,59.5,51.0,59.0,50.4,-99.9,100,82,43,0.00,40.00,4,2,8,0.00
2013-8-17,78.0,63.7,53.0,65.0,57.6,53.0,100,84,46,0.00,40.00,5,2,9,0.00
2013-8-18,71.0,64.5,59.0,65.0,61.9,59.0,100,92,68,0.00,40.00,5,2,8,0.00
2013-8-21,85.0,70.1,58.0,72.0,63.7,58.0,100,84,50,0.00,40.00,4,2,9,0.00
2013-8-22,82.0,73.9,65.0,74.0,70.5,65.0,100,90,70,0.00,40.00,5,2,21,0.00
2013-8-23,77.0,67.0,57.0,69.0,64.0,57.0,100,91,61,0.00,40.00,4,1,12,0.00
2013-8-24,78.0,63.5,52.0,62.0,56.0,52.0,100,81,42,0.00,40.00,4,2,10,0.00
2013-8-25,79.0,65.8,52.0,63.0,57.0,52.0,100,78,42,0.00,40.00,5,3,12,0.00
2013-8-26,83.0,71.3,63.0,72.0,64.8,59.0,100,82,58,0.00,40.00,5,2,14,0.00
2013-8-27,83.0,71.7,66.0,71.0,68.2,66.0,100,90,63,0.00,40.00,4,2,12,0.00
2013-8-28,75.0,72.3,68.0,75.0,72.3,68.0,100,100,99,0.00,40.00,9,5,11,0.00
2013-8-29,84.0,71.7,64.0,73.0,68.2,64.0,100,90,59,0.00,40.00,6,2,10,0.00
2013-8-30,85.0,73.8,64.0,73.0,69.5,64.0,100,88,58,0.00,40.00,5,2,9,0.00
2013-8-31,82.0,76.1,69.0,76.0,73.1,69.0,100,91,75,0.00,40.00,5,3,13,0.00
2013-9-1,84.0,75.8,69.0,78.0,73.1,69.0,100,93,73,0.00,40.00,4,1,10,0.00
2013-9-2,84.0,74.2,68.0,78.0,72.0,68.0,100,94,64,0.00,40.00,4,2,10,0.00
2013-9-3,74.0,68.6,64.0,68.0,61.0,56.0,100,79,54,0.00,40.00,7,3,16,0.00
2013-9-4,78.0,64.4,53.0,62.0,57.9,53.0,100,82,49,0.00,40.00,7,3,15,0.00
2013-9-5,74.0,63.4,55.0,62.0,53.8,46.0,100,75,38,0.00,40.00,6,3,19,0.00
2013-9-6,69.0,56.1,42.0,50.0,44.3,39.0,100,70,33,0.00,40.00,5,2,16,0.00
2013-9-7,77.0,61.3,47.0,60.0,51.0,47.0,100,74,38,0.00,40.00,5,3,10,0.00
2013-9-17,66.0,51.6,39.0,51.0,42.9,39.0,100,76,42,0.00,40.00,6,4,16,0.00
2013-9-18,54.0,45.8,43.0,48.0,45.6,43.0,100,99,80,0.00,40.00,6,5,9,0.00
2013-9-19,75.0,59.1,45.0,61.0,52.0,45.0,100,81,44,0.00,40.00,6,3,9,0.00
2013-9-20,77.0,63.6,53.0,63.0,57.5,53.0,100,83,53,0.00,40.00,5,3,13,0.00
2013-9-21,68.0,62.4,58.0,66.0,61.7,58.0,100,98,88,0.00,40.00,7,4,19,0.00
2013-9-22,63.0,57.0,50.0,58.0,50.2,45.0,100,80,53,0.00,40.00,6,4,17,0.00
2013-9-23,61.0,51.9,44.0,46.0,43.2,41.0,100,73,55,0.00,40.00,6,4,18,0.00
2013-9-24,69.0,50.9,37.0,50.0,44.4,37.0,100,82,45,0.00,40.00,4,2,10,0.00
2013-9-25,71.0,52.9,40.0,54.0,46.8,40.0,100,84,46,0.00,40.00,5,2,12,0.00
2013-9-26,73.0,57.4,44.0,60.0,52.1,44.0,100,85,49,0.00,40.00,4,2,8,0.00
2013-9-27,71.0,60.9,54.0,58.0,53.9,50.0,100,81,50,0.00,40.00,6,3,13,0.00
2013-9-28,70.0,59.5,51.0,58.0,54.3,50.0,100,85,49,0.00,40.00,7,3,14,0.00
2013-9-29,70.0,57.2,48.0,58.0,51.4,48.0,100,84,49,0.00,40.00,7,3,17,0.00
2013-9-30,71.0,57.7,49.0,58.0,53.5,49.0,100,88,54,0.00,40.00,7,3,9,0.00
2013-10-3,79.0,65.1,53.0,66.0,60.4,53.0,100,87,54,0.00,40.00,4,2,8,0.00
2013-10-4,81.0,68.2,60.0,69.0,65.1,60.0,100,91,61,0.00,40.00,5,2,10,0.00
2013-10-5,81.0,69.3,60.0,70.0,65.4,60.0,100,89,59,0.00,40.00,6,2,13,0.00
2013-10-6,74.0,69.7,67.0,70.0,69.1,67.0,100,98,86,0.00,40.00,11,6,22,0.00
2013-10-7,70.0,61.8,47.0,70.0,61.7,47.0,100,100,97,0.00,40.00,9,4,22,0.00
2013-10-8,65.0,51.8,42.0,51.0,46.3,42.0,100,84,47,0.00,40.00,6,2,15,0.00
2013-10-9,61.0,50.3,42.0,47.0,43.9,41.0,100,82,47,0.00,40.00,9,3,14,0.00
2013-10-17,70.0,62.9,59.0,65.0,60.0,54.0,100,92,61,0.00,40.00,8,3,19,0.00
2013-10-18,59.0,51.4,42.0,57.0,45.9,40.0,100,83,51,0.00,40.00,6,4,20,0.00
2013-10-19,60.0,48.7,40.0,53.0,45.1,40.0,100,89,54,0.00,40.00,7,3,17,0.00
2013-10-20,57.0,47.3,38.0,49.0,40.1,36.0,100,79,48,0.00,40.00,7,3,19,0.00
2013-10-21,64.0,50.5,38.0,48.0,39.2,38.0,100,71,39,0.00,40.00,7,4,17,0.00
2013-10-22,58.0,50.6,37.0,48.0,41.0,31.0,90,72,36,0.00,40.00,6,4,19,0.00
2013-10-23,51.0,39.0,33.0,38.0,35.0,32.0,100,88,48,0.00,40.00,5,2,10,0.00
2013-10-24,46.0,38.8,31.0,36.0,31.0,27.0,100,76,49,0.00,40.00,7,3,20,0.00
2013-10-25,49.0,38.6,31.0,35.0,32.9,31.0,100,81,54,0.00,40.00,5,3,15,0.00
2013-10-26,52.0,40.6,30.0,32.0,29.4,26.0,100,69,38,0.00,40.00,7,3,19,0.21
2013-10-27,50.0,43.7,34.0,36.0,32.9,30.0,98,67,47,0.00,40.00,7,3,17,0.01
2013-10-28,57.0,41.2,29.0,40.0,32.9,-99.9,100,80,44,0.00,40.00,5,2,12,0.64
2013-10-29,55.0,44.7,33.0,40.0,36.9,33.0,100,77,50,0.00,40.00,4,2,11,0.04
2013-10-30,65.0,52.7,46.0,52.0,47.3,35.0,100,84,49,0.00,40.00,5,4,13,0.00
2013-10-31,61.0,56.0,51.0,61.0,56.0,51.0,100,100,99,0.00,40.00,8,5,18,0.15
2013-11-1,68.0,59.6,45.0,64.0,54.6,45.0,100,87,43,0.00,40.00,9,5,25,0.48
2013-11-2,60.0,48.6,42.0,49.0,44.2,41.0,100,86,51,0.00,40.00,5,2,12,0.02
2013-11-3,47.0,40.1,30.0,45.0,30.1,20.0,95,69,45,0.00,40.00,7,5,19,0.01
2013-11-4,44.0,32.8,22.0,23.0,19.9,15.0,93,62,32,0.00,40.00,5,2,12,0.14
2013-11-5,52.0,42.8,34.0,43.0,35.3,23.0,94,76,59,0.00,40.00,6,3,14,0.02
2013-11-6,58.0,52.6,48.0,53.0,48.8,45.0,97,87,73,0.00,40.00,7,4,17,0.00
2013-11-7,57.0,49.1,38.0,54.0,46.8,28.0,100,92,70,0.00,40.00,6,4,20,0.64
2013-11-8,45.0,38.0,33.0,36.0,29.2,27.0,100,72,51,0.00,40.00,8,5,24,0.01
2013-11-9,47.0,39.9,28.0,31.0,28.0,26.0,95,65,46,0.00,40.00,6,3,15,0.01
2013-11-10,52.0,44.5,39.0,37.0,30.7,27.0,85,59,45,0.00,40.00,8,5,27,0.01
2013-11-11,47.0,41.7,29.0,34.0,29.9,28.0,100,65,49,0.00,40.00,6,3,16,0.00
2013-11-12,46.0,32.3,26.0,39.0,21.3,12.0,100,66,43,0.00,40.00,8,5,19,0.06
2013-11-13,36.0,28.4,24.0,22.0,16.8,11.0,83,62,48,0.00,40.00,7,4,19,0.01
2013-11-14,50.0,35.7,24.0,23.0,17.6,12.0,82,53,21,0.00,40.00,6,3,16,0.00
2013-11-15,55.0,41.8,30.0,33.0,25.4,19.0,89,57,25,0.00,40.00,4,2,12,0.00
2013-11-16,59.0,48.5,37.0,48.0,41.1,30.0,100,79,49,0.00,40.00,7,4,18,0.02
2013-11-17,57.0,52.6,48.0,57.0,52.6,48.0,100,100,100,0.00,40.00,7,4,19,0.03
2013-11-18,59.0,52.3,44.0,59.0,37.8,27.0,100,61,38,0.00,40.00,7,5,23,0.36
2013-11-19,43.0,36.2,26.0,28.0,24.1,21.0,88,62,49,0.00,40.00,9,5,26,0.02
2013-11-20,45.0,32.5,27.0,23.0,18.1,8.0,82,59,22,0.00,40.00,9,3,14,0.00
2013-11-21,44.0,36.5,25.0,38.0,28.0,14.0,84,72,46,0.00,40.00,6,3,13,0.00
2013-11-22,52.0,47.1,43.0,49.0,45.7,39.0,100,95,82,0.00,40.00,7,2,15,0.05
2013-11-23,45.0,34.2,24.0,45.0,24.4,3.0,99,68,47,0.00,40.00,8,5,25,0.02
2013-11-24,25.0,20.5,17.0,5.0,1.8,-2.0,51,44,33,0.00,40.00,9,6,28,0.00
2013-11-25,31.0,23.4,15.0,13.0,10.8,8.0,86,61,39,0.00,40.00,6,4,17,0.00
2013-11-26,41.0,30.7,27.0,38.0,25.3,10.0,100,83,45,0.00,40.00,23,4,33,1.08
2013-11-27,43.0,33.3,26.0,43.0,30.8,18.0,100,91,66,0.00,40.00,23,6,33,0.74
2013-11-28,27.0,25.3,23.0,21.0,17.8,16.0,80,72,65,0.00,40.00,9,4,23,0.02
2013-11-29,31.0,25.5,18.0,23.0,19.0,16.0,97,77,61,0.00,40.00,5,2,16,0.00
2013-11-30,32.0,24.2,13.0,25.0,18.4,12.0,100,80,53,0.00,40.00,7,4,16,0.00
2013-12-1,39.0,31.5,24.0,31.0,27.4,24.0,100,86,64,0.00,40.00,3,1,10,0.00
2013-12-2,45.0,36.8,32.0,35.0,32.3,30.0,97,84,62,0.00,40.00,4,1,7,0.00
2013-12-3,49.0,37.8,31.0,37.0,34.0,31.0,100,88,58,0.00,40.00,4,1,8,0.00
2013-12-12,24.0,19.8,15.0,18.0,7.6,2.0,92,60,41,0.00,40.00,7,4,20,0.01
2013-12-13,33.0,24.1,14.0,20.0,12.1,4.0,80,61,45,0.00,40.00,7,3,17,0.00
2013-12-14,27.0,25.1,23.0,26.0,22.9,20.0,100,91,76,0.00,40.00,13,7,26,0.00
2013-12-15,33.0,28.0,25.0,32.0,25.8,20.0,100,92,75,0.00,40.00,8,3,17,0.01
2013-12-16,27.0,19.0,12.0,18.0,9.4,7.0,88,66,47,0.00,40.00,6,4,19,0.01
2013-12-17,27.0,20.9,15.0,24.0,18.4,11.0,100,90,67,0.00,40.00,9,4,19,0.00
2013-12-18,32.0,25.2,16.0,22.0,19.3,16.0,100,80,58,0.00,40.00,7,3,18,0.01
2013-12-19,48.0,33.3,18.0,33.0,25.7,17.0,99,77,44,0.00,40.00,8,3,16,0.26
2013-12-20,52.0,41.0,32.0,34.0,32.8,30.0,100,76,50,0.00,40.00,5,3,14,0.01
2013-12-21,56.0,54.3,53.0,48.0,46.3,45.0,84,75,66,0.00,40.00,5,4,13,0.02
2013-12-22,63.0,60.4,55.0,63.0,59.3,55.0,100,97,87,0.00,40.00,6,4,18,0.09
2013-12-23,58.0,47.7,33.0,57.0,45.3,24.0,100,92,69,0.00,40.00,9,4,24,0.37
2013-12-24,32.0,27.0,21.0,26.0,19.9,9.0,99,75,59,0.00,40.00,7,4,18,0.01
2013-12-25,24.0,19.1,13.0,12.0,8.2,4.0,75,63,50,0.00,40.00,5,4,14,0.00
2013-12-26,34.0,26.2,21.0,26.0,20.7,13.0,100,79,64,0.00,40.00,7,4,18,0.06
2013-12-28,51.0,34.9,24.0,31.0,27.4,24.0,100,78,41,0.00,40.00,6,2,17,0.00
2013-12-29,38.0,35.4,31.0,38.0,35.2,31.0,100,99,95,0.00,40.00,5,2,15,0.88
2013-12-30,39.0,31.7,22.0,39.0,25.8,13.0,100,80,61,0.00,40.00,8,4,20,0.01
2013-12-31,28.0,22.5,19.0,24.0,13.7,8.0,87,68,54,0.00,40.00,8,4,24,0.00
2014-1-1,29.0,24.9,20.0,24.0,18.8,11.0,84,78,69,0.00,40.00,6,2,11,0.00
2014-1-2,28.0,24.8,19.0,26.0,23.1,19.0,100,93,76,0.00,40.00,10,7,17,0.00